Temperature
17 16 15 15 14 14 14 13 13 13 13 13 13 13 13 13 14 14 14 14 14 14 13 13 14 14 14 14 14 14 14 14 14 13 13 13 14 14 14 14 14 14 14
17 16 15 14 14 14 13 13 12 12 12 12 12 12 13 13 13 13 13 13 13 13 13 13 13 13 13 13 14 14 14 14 14 13 13 13 13 13 13 13 13 13 14
17 16 15 14 14 13 13 12 12 12 11 12 12 12 12 12 13 13 13 13 13 13 13 13 13 13 13 13 13 14 13 13 13 13 12 13 13 13 13 13 13 13 13
17 16 15 14 14 13 13 12 12 11 11 11 12 12 12 12 12 12 12 12 12 12 12 12 12 13 13 13 13 13 13 13 13 13 13 13 12 12 13 13 13 12 12
17 16 15 14 13 13 13 12 11 11 11 11 11 11 11 11 11 11 11 11 11 12 12 12 12 12 12 13 13 13 13 13 13 13 13 12 12 12 12 12 12 12 12
17 16 15 14 13 13 12 12 11 11 11 11 11 11 11 11 11 11 11 11 11 11 11 12 12 12 12 12 12 12 12 12 12 12 12 12 11 11 11 11 11 11 11
17 16 15 14 13 13 12 12 11 11 11 11 11 11 11 10 10 11 11 11 11 11 11 11 11 11 12 12 12 12 12 12 12 11 11 11 11 11 11 11 11 11 10
16 16 15 14 14 13 12 12 11 11 11 11 11 11 11 11 11 11 11 11 11 11 11 11 11 11 11 11 11 11 11 11 11 11 11 11 10 10 10 10 10 10 10
15 15 15 14 14 13 12 12 12 11 11 11 11 11 11 11 11 11 11 11 11 11 11 11 11 11 11 11 11 11 11 11 11 11 11 10 10 10 10 10 10 10 10
13 14 14 14 14 13 13 12 12 11 11 11 11 11 11 11 11 11 11 11 11 11 11 11 11 11 11 11 11 11 11 11 11 10 10 10 10 10 10 9 9 9 9
11 12 13 14 14 13 13 12 12 11 11 11 11 11 11 11 11 11 11 11 11 11 11 10 10 10 10 10 10 10 10 10 10 10 10 10 9 9 9 9 9 9 9
10 11 12 13 13 13 13 12 12 11 11 11 11 11 11 11 11 11 11 11 11 11 10 10 10 10 10 10 10 10 10 10 10 9 9 9 9 9 9 9 9 9 8
9 10 11 12 13 13 13 12 11 11 11 11 11 11 11 11 11 11 11 11 11 10 10 10 10 10 9 9 9 9 9 9 9 9 9 8 8 8 8 8 8 8 8
8 9 10 11 12 12 13 12 12 11 11 11 11 11 11 11 11 11 11 10 10 10 10 10 10 9 9 9 9 9 9 9 8 8 8 8 8 8 8 8 8 8 8
8 8 9 10 12 12 12 12 12 12 12 12 12 12 11 11 11 11 11 11 10 10 10 10 10 9 9 9 9 9 9 9 8 8 8 8 8 8 8 8 7 7 7
7 8 8 10 11 12 12 12 12 12 12 12 12 12 12 12 11 11 11 11 10 10 10 10 10 10 9 9 9 9 9 9 8 8 8 8 7 7 7 7 7 7 7
7 7 8 9 10 11 12 12 11 11 11 11 11 11 12 11 11 11 11 10 10 10 10 10 10 10 10 10 9 9 9 9 8 8 8 7 7 7 7 7 7 7 7
7 7 8 8 9 11 11 12 12 11 11 10 11 11 11 11 11 11 11 10 10 10 10 10 10 10 10 10 10 9 9 9 8 8 8 7 7 7 7 7 7 7 6
7 7 7 8 9 10 11 11 12 12 11 11 11 11 11 11 11 11 11 10 11 10 10 10 10 10 10 10 10 10 9 9 9 8 8 8 7 7 7 7 6 6 6
7 7 7 8 8 9 10 11 11 11 11 11 11 11 11 11 10 10 10 10 10 10 10 10 10 10 10 10 10 10 10 9 9 9 8 8 7 7 7 6 6 6 6
7 7 7 8 8 9 10 11 11 11 11 11 11 11 11 11 11 11 11 11 11 11 11 11 10 10 10 10 10 10 10 9 9 9 9 8 8 7 7 6 6 6 6
7 7 7 8 8 9 10 11 11 11 12 12 12 11 11 11 11 11 11 11 11 11 11 11 11 11 11 11 10 10 10 10 9 9 9 8 8 8 7 7 6 6 5
7 7 7 8 8 9 10 10 11 11 12 12 12 11 11 11 11 11 11 11 11 11 11 11 11 11 11 11 11 11 10 10 10 10 9 9 9 8 7 7 6 6 5
7 7 7 8 8 9 10 10 10 11 12 12 12 12 11 11 11 11 10 10 10 10 11 11 11 11 11 11 11 11 11 10 10 10 10 9 9 9 8 7 6 6 5
7 7 7 8 8 9 10 10 11 11 11 12 12 12 12 11 11 11 10 10 10 10 11 11 11 11 11 11 11 11 11 10 10 10 10 10 9 9 8 7 7 6 5
7 7 7 8 8 9 10 10 11 11 12 12 12 12 12 11 11 11 11 10 10 10 11 11 11 11 11 11 11 11 11 11 10 10 10 10 9 9 8 7 7 6 5
Wind_Speed
6 4 3 1 0 1 3 5 6 6 7 7 6 5 3 2 2 4 4 4 4 3 3 4 4 3 2 1 2 2 2 4 5 3 4 4 6 6 5 6 7 6 6
7 6 5 3 1 0 2 4 5 6 7 7 6 5 3 1 1 3 4 5 6 6 5 6 5 5 4 3 3 4 4 4 6 5 5 6 7 5 5 6 5 6 6
7 7 5 4 3 2 1 3 4 5 6 7 6 5 5 4 5 6 7 8 8 7 7 7 6 6 6 5 6 6 6 7 7 6 5 5 5 4 5 5 5 5 5
8 7 7 6 5 4 2 1 3 4 5 6 6 6 6 6 8 10 10 10 10 9 8 7 6 7 7 7 7 8 9 10 8 7 5 5 4 3 4 5 5 4 4
8 8 8 7 6 5 3 2 2 3 4 4 6 7 7 7 9 11 10 11 10 10 9 8 8 10 10 8 8 9 10 8 7 7 5 5 5 5 4 4 4 4 3
9 9 8 8 7 6 5 3 2 1 2 3 4 6 7 7 10 11 10 9 9 10 9 8 9 10 12 14 15 13 11 9 7 6 4 5 4 4 4 4 4 5 4
9 9 9 9 9 8 6 5 4 2 1 2 3 5 6 7 11 13 13 10 9 8 8 7 8 8 9 9 12 14 13 12 9 6 5 3 2 2 4 6 5 3 2
9 9 9 10 10 9 7 6 5 4 3 3 4 5 6 7 11 13 14 10 9 8 8 8 8 8 7 9 9 9 9 8 7 5 3 2 1 1 1 1 1 2 3
9 9 10 11 11 10 10 8 6 5 5 5 5 6 7 6 11 13 13 9 9 8 7 7 9 9 11 13 11 9 9 7 8 11 10 8 8 7 4 5 5 5 4
10 10 10 11 12 13 12 9 6 5 6 7 6 6 7 6 9 14 13 8 8 7 6 7 10 11 12 13 10 9 9 6 7 9 9 10 8 8 9 5 3 3 2
14 12 9 10 12 13 12 9 7 7 8 8 8 6 6 7 9 13 13 8 8 7 6 4 5 12 13 13 10 7 7 6 7 8 7 7 6 7 7 5 3 3 3
14 13 10 10 11 11 12 11 9 10 10 9 8 6 4 4 6 10 13 12 11 8 6 5 5 11 12 11 9 10 12 10 7 7 6 6 5 5 5 6 6 5 4
14 13 11 10 10 12 13 13 11 10 9 9 9 8 6 4 4 9 12 15 15 7 6 9 9 11 10 8 9 11 9 7 6 6 5 4 3 3 4 5 7 6 6
13 13 11 10 10 11 12 12 12 12 11 10 10 9 7 6 5 4 5 8 10 8 6 7 8 9 7 6 6 6 5 5 5 4 3 3 4 5 5 4 5 5 6
12 12 12 10 11 12 12 12 14 13 14 13 11 11 11 9 10 13 11 8 7 7 7 4 3 3 3 3 3 4 4 4 5 3 4 4 5 4 4 4 4 4 5
10 11 11 8 8 10 11 9 11 11 17 18 16 14 12 13 17 18 16 15 15 15 8 5 4 4 4 4 4 3 2 4 3 4 4 4 4 3 3 4 4 4 4
9 9 10 9 7 10 12 12 10 6 12 17 18 19 16 17 19 19 17 16 16 14 5 5 4 4 4 5 5 5 4 4 4 4 4 3 3 3 3 3 4 4 4
8 9 9 8 7 9 12 12 12 12 10 6 9 16 19 20 20 19 18 12 7 5 4 5 5 5 5 6 6 5 5 5 4 4 4 3 3 3 3 3 3 3 3
7 6 7 7 6 7 10 12 12 12 11 9 5 5 11 15 16 17 16 7 8 6 5 5 5 5 5 7 8 7 7 6 5 5 4 4 4 4 3 3 3 4 4
7 10 8 6 6 6 9 11 12 12 11 11 11 9 9 8 7 8 7 6 7 7 7 6 6 6 7 7 8 8 7 6 6 5 5 5 4 4 4 4 3 3 3
7 7 8 7 6 6 9 11 12 13 12 12 11 13 18 14 14 13 11 8 8 8 7 7 7 7 7 7 8 9 9 7 7 6 6 6 5 4 4 4 4 4 3
6 5 5 6 6 6 8 11 12 13 14 13 10 11 17 11 11 11 11 10 8 7 7 7 6 7 9 10 9 9 8 8 8 7 7 6 6 5 5 4 4 3 3
6 6 5 6 6 6 8 10 12 13 13 13 13 12 13 9 10 10 11 9 8 7 7 6 6 6 7 7 8 10 10 10 10 10 9 8 7 6 5 5 5 5 4
6 6 6 6 5 5 8 10 12 13 14 13 13 12 13 12 11 11 10 8 8 8 7 7 8 10 12 9 8 10 11 13 14 12 13 11 9 7 6 6 5 6 5
6 6 6 6 5 5 7 10 11 12 13 13 13 12 12 12 10 9 9 9 10 9 10 9 7 9 12 13 11 12 16 19 18 17 13 10 11 10 9 8 6 5 5
6 6 6 5 5 6 7 10 11 12 12 13 13 12 12 12 11 10 9 9 9 9 9 8 10 11 11 13 15 17 18 20 21 21 16 10 11 10 10 8 9 7 6
Wind_Direction
186 184 175 189 271 334 338 329 325 324 326 326 319 310 290 257 208 181 178 167 158 147 140 135 123 112 98 90 100 93 86 108 111 63 30 25 41 41 29 35 41 43 34
185 181 181 177 170 330 326 327 330 331 331 332 338 345 345 16 108 148 150 136 130 122 116 110 105 103 88 82 91 92 89 96 111 97 41 29 35 32 34 37 33 45 44
180 178 180 179 182 204 275 321 330 332 336 347 357 12 30 53 71 88 102 103 100 100 101 101 98 96 82 74 77 81 83 85 84 91 60 32 30 23 26 27 34 27 31
182 179 184 189 192 192 202 289 314 327 341 355 12 22 43 72 84 87 91 92 89 84 83 85 85 88 90 85 83 85 91 87 81 79 63 36 24 359 26 18 12 9 15
186 187 193 191 186 180 186 233 293 329 349 2 29 38 49 74 91 96 95 97 94 87 76 72 73 79 80 83 92 93 94 92 84 78 66 49 29 20 5 348 8 356 1
194 195 191 182 181 184 190 205 235 299 340 14 49 60 63 85 102 103 105 99 96 92 84 71 67 62 71 74 77 80 91 100 98 87 72 64 35 14 1 14 22 29 2
204 196 188 183 184 188 189 194 203 212 224 99 88 86 83 99 110 105 102 102 94 89 83 75 74 64 69 75 70 66 65 72 90 108 93 79 56 13 26 27 27 49 12
218 203 192 186 186 184 182 193 203 193 175 150 132 117 104 108 116 114 108 100 95 90 89 90 86 68 76 89 79 65 53 46 55 73 102 100 93 114 103 77 347 15 337
243 220 203 191 185 182 185 193 194 180 170 157 145 133 116 108 120 124 114 104 97 85 80 82 89 80 84 90 84 73 54 29 39 58 68 69 63 68 79 55 37 43 6
284 250 217 194 186 186 187 185 183 174 166 153 147 145 131 118 121 128 121 116 107 97 80 72 82 93 89 88 88 84 69 41 47 53 46 36 37 40 50 66 87 77 38
308 285 240 202 191 187 182 176 173 168 159 155 150 149 141 132 125 133 135 131 133 125 114 99 89 96 92 90 90 87 96 96 73 68 55 38 31 30 26 27 45 101 90
312 296 258 216 195 186 177 176 172 167 164 161 152 147 148 145 135 140 147 150 147 137 140 140 126 109 99 94 87 91 90 84 74 65 55 38 30 20 8 16 27 46 79
313 304 274 231 202 180 178 178 174 173 172 171 166 163 161 155 151 149 149 152 150 141 153 156 141 117 97 84 86 89 85 83 78 71 59 37 11 6 18 23 22 25 32
307 308 286 239 207 185 180 179 180 182 180 177 175 171 163 157 161 151 136 140 140 130 131 141 124 104 90 82 76 75 81 97 101 94 79 40 29 35 32 28 30 24 32
304 311 299 250 209 189 183 185 185 188 186 181 181 175 171 176 188 173 158 157 157 150 132 105 96 93 88 79 75 79 82 86 86 80 71 54 41 40 25 19 37 44 46
299 308 308 273 217 191 182 181 191 182 184 183 179 174 182 181 172 175 173 170 163 153 134 135 145 148 151 150 145 131 114 113 115 104 85 74 64 57 36 22 37 49 42
281 294 306 288 232 192 180 177 174 173 181 184 181 178 175 170 170 175 175 170 163 152 135 153 164 173 175 169 166 162 159 153 142 124 106 92 82 73 61 40 30 38 34
270 284 296 293 257 201 183 181 179 175 173 180 193 189 175 168 169 167 157 139 147 156 157 167 179 182 177 172 171 168 160 150 142 139 126 111 100 91 73 55 48 54 50
261 270 281 292 273 216 186 178 177 176 174 165 143 159 174 163 158 160 154 153 166 177 181 182 182 177 175 173 173 172 165 161 160 154 147 140 130 114 95 78 74 67 72
251 263 275 286 276 225 187 177 175 173 169 169 170 162 150 141 154 171 186 175 172 179 183 188 188 181 178 175 173 171 167 165 163 161 162 160 151 135 125 117 108 94 84
247 253 267 277 265 228 191 180 176 173 173 174 175 172 169 174 178 182 189 187 183 183 183 187 187 184 183 179 175 175 174 176 175 171 170 172 165 152 146 144 138 123 117
243 241 249 264 259 227 193 181 176 174 174 172 166 169 175 175 176 182 190 195 194 188 182 180 186 188 186 185 181 178 178 180 181 178 177 177 174 166 158 155 149 138 135
236 238 250 257 248 216 192 181 177 175 173 172 168 166 178 187 181 186 192 195 193 192 187 184 189 196 195 189 183 179 182 187 187 182 178 177 177 175 169 168 166 157 161
228 235 249 254 236 207 188 179 178 176 174 171 169 171 180 190 190 191 191 190 193 196 193 190 195 200 198 195 194 192 192 190 184 183 178 178 179 177 173 172 173 172 175
227 233 248 245 223 200 184 175 173 172 170 172 173 176 181 187 191 190 188 190 192 198 200 198 198 202 202 198 196 200 200 192 187 185 182 180 180 178 176 175 174 172 176
229 235 247 238 206 188 178 170 169 168 167 170 175 177 179 185 191 191 187 188 193 198 202 202 203 201 201 203 204 200 196 194 193 188 184 182 181 182 179 179 177 175 171
Height
1473 1471 1469 1467 1464 1460 1457 1452 1448 1445 1441 1437 1434 1432 1431 1431 1433 1434 1436 1438 1440 1442 1444 1445 1447 1448 1449 1450 1452 1453 1455 1457 1459 1461 1462 1462 1462 1462 1462 1462 1462 1461 1461
1469 1467 1465 1463 1460 1457 1454 1451 1447 1443 1439 1436 1433 1430 1429 1428 1429 1431 1433 1435 1437 1440 1442 1444 1446 1448 1449 1451 1452 1454 1455 1457 1458 1460 1462 1462 1462 1462 1462 1461 1461 1461 1460
1465 1464 1462 1460 1458 1455 1452 1450 1446 1443 1439 1436 1433 1430 1428 1428 1428 1429 1432 1434 1437 1440 1442 1444 1446 1448 1450 1451 1453 1454 1456 1457 1459 1460 1462 1463 1463 1463 1463 1462 1462 1461 1461
1462 1460 1458 1457 1455 1453 1451 1449 1446 1443 1441 1437 1434 1432 1429 1429 1429 1430 1432 1434 1437 1440 1443 1446 1448 1450 1451 1453 1454 1456 1457 1459 1461 1462 1463 1464 1464 1464 1464 1463 1463 1462 1461
1458 1456 1455 1454 1452 1451 1449 1448 1446 1444 1442 1440 1437 1434 1432 1432 1432 1433 1435 1437 1440 1443 1445 1448 1450 1452 1454 1455 1457 1458 1460 1462 1463 1464 1465 1465 1465 1465 1465 1464 1464 1463 1462
1453 1451 1451 1450 1449 1448 1448 1447 1446 1445 1444 1442 1440 1438 1437 1436 1437 1438 1440 1443 1445 1447 1449 1452 1454 1455 1457 1458 1460 1462 1463 1464 1465 1466 1466 1466 1467 1467 1467 1465 1464 1463 1462
1448 1447 1446 1446 1446 1446 1446 1446 1445 1445 1445 1444 1443 1442 1441 1442 1443 1444 1446 1448 1450 1452 1454 1456 1457 1459 1460 1462 1463 1464 1465 1466 1467 1468 1468 1469 1469 1469 1468 1467 1465 1464 1463
1444 1442 1442 1442 1442 1442 1443 1444 1444 1444 1445 1445 1445 1445 1445 1446 1447 1448 1450 1452 1453 1455 1457 1459 1460 1462 1464 1465 1465 1466 1467 1468 1469 1469 1469 1470 1470 1470 1469 1468 1467 1466 1464
1438 1437 1436 1437 1437 1438 1439 1441 1442 1443 1444 1445 1446 1447 1448 1449 1450 1452 1453 1455 1456 1458 1460 1462 1463 1464 1466 1467 1467 1468 1469 1470 1471 1471 1471 1471 1471 1471 1470 1469 1467 1465 1464
1432 1431 1431 1431 1432 1433 1434 1436 1439 1441 1442 1444 1446 1448 1450 1451 1453 1454 1456 1457 1458 1460 1462 1463 1464 1465 1467 1468 1468 1469 1470 1471 1472 1472 1472 1472 1472 1471 1470 1469 1467 1466 1464
1425 1424 1424 1424 1425 1427 1429 1432 1435 1438 1440 1442 1445 1448 1450 1452 1454 1455 1457 1458 1460 1461 1463 1464 1465 1466 1468 1469 1470 1471 1472 1472 1473 1473 1473 1473 1472 1472 1471 1469 1468 1466 1465
1418 1416 1416 1417 1419 1420 1423 1426 1430 1434 1437 1440 1443 1446 1449 1451 1453 1455 1457 1459 1461 1462 1464 1465 1466 1467 1469 1470 1471 1472 1473 1473 1474 1474 1473 1473 1473 1472 1472 1471 1470 1468 1467
1412 1408 1407 1409 1411 1413 1416 1419 1424 1429 1433 1436 1439 1442 1446 1449 1452 1454 1457 1459 1461 1462 1464 1465 1467 1468 1470 1472 1473 1474 1474 1474 1474 1474 1474 1474 1474 1474 1473 1472 1471 1470 1468
1406 1402 1399 1399 1402 1405 1408 1412 1417 1422 1427 1431 1435 1438 1442 1446 1449 1452 1455 1457 1460 1461 1463 1465 1467 1469 1471 1473 1474 1474 1475 1475 1474 1474 1475 1475 1475 1475 1474 1473 1472 1470 1469
1399 1395 1391 1390 1393 1397 1400 1404 1409 1415 1419 1424 1429 1434 1438 1442 1446 1450 1452 1455 1457 1459 1461 1464 1466 1469 1471 1473 1474 1475 1475 1475 1475 1475 1476 1476 1476 1475 1475 1474 1473 1471 1470
1393 1388 1383 1381 1384 1389 1393 1398 1404 1410 1416 1422 1426 1431 1435 1440 1444 1447 1450 1453 1456 1458 1460 1463 1465 1468 1470 1472 1474 1475 1476 1476 1476 1476 1477 1477 1477 1476 1476 1475 1474 1473 1471
1387 1382 1377 1374 1376 1381 1386 1391 1397 1404 1411 1417 1423 1427 1432 1437 1441 1444 1448 1451 1454 1456 1459 1461 1464 1467 1469 1471 1473 1474 1475 1476 1477 1477 1477 1477 1477 1477 1476 1476 1475 1474 1472
1380 1377 1372 1368 1369 1374 1379 1384 1390 1396 1403 1410 1417 1423 1428 1433 1437 1441 1445 1448 1451 1454 1457 1460 1462 1465 1467 1469 1471 1473 1474 1476 1476 1477 1477 1477 1477 1477 1477 1476 1475 1474 1473
1373 1370 1366 1362 1363 1367 1372 1378 1384 1391 1397 1404 1411 1417 1423 1429 1434 1438 1441 1444 1447 1450 1454 1457 1460 1463 1465 1467 1469 1471 1473 1474 1475 1476 1477 1477 1477 1477 1476 1476 1475 1474 1473
1365 1363 1361 1358 1357 1361 1367 1372 1378 1385 1391 1398 1405 1411 1417 1422 1427 1432 1436 1440 1443 1447 1450 1454 1457 1460 1463 1465 1467 1469 1471 1473 1474 1475 1475 1476 1476 1476 1475 1475 1474 1473 1472
1358 1357 1355 1353 1353 1356 1361 1367 1373 1379 1386 1393 1399 1406 1411 1417 1421 1426 1431 1435 1439 1443 1446 1450 1454 1457 1460 1463 1465 1467 1469 1470 1472 1473 1474 1474 1474 1474 1474 1473 1473 1472 1471
1351 1351 1349 1348 1348 1351 1356 1362 1368 1375 1381 1388 1395 1401 1407 1413 1417 1422 1426 1431 1435 1439 1443 1447 1450 1453 1456 1459 1462 1464 1466 1467 1469 1470 1471 1472 1472 1472 1472 1471 1471 1470 1470
1345 1345 1344 1344 1344 1347 1352 1358 1364 1371 1377 1384 1390 1396 1402 1407 1412 1417 1422 1426 1430 1434 1438 1442 1446 1449 1452 1456 1458 1460 1462 1464 1466 1467 1468 1469 1469 1469 1469 1468 1468 1468 1467
1339 1339 1339 1339 1340 1343 1348 1353 1360 1367 1374 1380 1386 1392 1397 1402 1407 1412 1416 1421 1425 1429 1434 1438 1441 1445 1448 1452 1454 1457 1459 1460 1462 1463 1464 1465 1465 1465 1465 1465 1465 1465 1464
1333 1334 1334 1334 1336 1340 1344 1350 1357 1364 1370 1376 1382 1388 1393 1398 1403 1407 1411 1416 1420 1424 1428 1433 1437 1441 1444 1447 1450 1452 1454 1456 1458 1459 1460 1460 1461 1461 1461 1461 1461 1461 1461
1328 1329 1329 1330 1333 1337 1342 1348 1354 1361 1367 1373 1379 1384 1389 1394 1399 1403 1407 1411 1415 1419 1424 1428 1433 1436 1440 1443 1445 1448 1450 1451 1453 1454 1455 1455 1456 1456 1456 1456 1456 1457 1457